Location: Clyde
(45.1830°S, 169.3170°E)
Time: 17:55:41
(UTC+12:00)

ERS-2 - Pass Details

Date: 14 May 2021
Orbit: 491 x 496 km, 98.5° (Epoch: 16 June)

Event Time Altitude Azimuth Distance (km) Brightness Sun altitude
Rises 19:01:39 0° 22° (NNE) 2,576 5.6 -17.0°
Reaches altitude 10° 19:03:43 10° 24° (NNE) 1,703 4.7 -17.4°
Maximum altitude 19:07:21 67° 106° (ESE) 552 2.0 -18.0°
Drops below altitude 10° 19:11:03 10° 189° (S) 1,733 4.9 -18.7°
Sets 19:13:10 0° 191° (S) 2,627 5.8 -19.0°
